Time,TemperatureF,DewpointF,PressureIn,WindDirection,WindDirectionDegrees,WindSpeedMPH,WindSpeedGustMPH,Humidity,HourlyPrecipIn,Conditions,Clouds,dailyrainin,SoftwareType,DateUTC
2013-02-28 00:02:00,41.0,33.6,29.93,WNW,288,3.0,8.0,75,0.00,,,0.01,meteohub,2013-02-28 06:02:00,
2013-02-28 00:07:00,41.0,33.4,29.93,WNW,301,4.0,10.0,74,0.00,,,0.00,meteohub,2013-02-28 06:07:00,
2013-02-28 00:13:00,41.0,33.6,29.94,WSW,256,2.0,11.0,75,0.00,,,0.00,meteohub,2013-02-28 06:13:00,
2013-02-28 00:18:00,40.8,33.4,29.93,West,281,1.0,11.0,75,0.00,,,0.00,meteohub,2013-02-28 06:18:00,
2013-02-28 00:23:00,40.8,33.4,29.93,West,273,3.0,11.0,75,0.00,,,0.00,meteohub,2013-02-28 06:23:00,
2013-02-28 00:28:00,40.6,33.3,29.93,WNW,288,4.0,6.0,75,0.00,,,0.00,meteohub,2013-02-28 06:28:00,
2013-02-28 00:33:00,40.5,33.1,29.93,WNW,290,4.0,10.0,75,0.00,,,0.00,meteohub,2013-02-28 06:33:00,
2013-02-28 00:38:00,40.3,33.3,29.94,WNW,302,3.0,10.0,76,0.00,,,0.00,meteohub,2013-02-28 06:38:00,
2013-02-28 00:43:00,40.1,33.1,29.94,SW,223,2.0,10.0,76,0.00,,,0.00,meteohub,2013-02-28 06:43:00,
2013-02-28 00:48:00,40.1,32.9,29.94,NW,310,2.0,11.0,75,0.00,,,0.00,meteohub,2013-02-28 06:48:00,
2013-02-28 00:53:00,39.9,32.9,29.94,WNW,289,4.0,11.0,76,0.00,,,0.00,meteohub,2013-02-28 06:53:00,
2013-02-28 00:58:00,39.7,32.7,29.94,NW,315,1.0,11.0,76,0.00,,,0.00,meteohub,2013-02-28 06:58:00,
2013-02-28 01:04:00,39.6,32.5,29.94,WNW,285,4.0,11.0,76,0.00,,,0.00,meteohub,2013-02-28 07:04:00,
2013-02-28 01:09:00,39.6,32.5,29.94,NW,317,5.0,11.0,76,0.00,,,0.00,meteohub,2013-02-28 07:09:00,
2013-02-28 01:14:00,39.6,32.9,29.94,NW,315,2.0,11.0,77,0.00,,,0.00,meteohub,2013-02-28 07:14:00,
2013-02-28 01:19:00,39.4,32.7,29.93,SE,144,2.0,10.0,77,0.00,,,0.00,meteohub,2013-02-28 07:19:00,
2013-02-28 01:24:00,39.2,32.5,29.93,WSW,238,0.0,10.0,77,0.00,,,0.00,meteohub,2013-02-28 07:24:00,
2013-02-28 01:29:00,39.0,32.4,29.93,West,269,4.0,10.0,77,0.00,,,0.00,meteohub,2013-02-28 07:29:00,
2013-02-28 01:34:00,38.8,32.2,29.93,WNW,291,8.0,10.0,77,0.00,,,0.00,meteohub,2013-02-28 07:34:00,
2013-02-28 01:39:00,38.8,32.2,29.93,West,279,4.0,10.0,77,0.00,,,0.00,meteohub,2013-02-28 07:39:00,
2013-02-28 01:44:00,38.7,32.0,29.93,WSW,250,4.0,9.0,77,0.00,,,0.00,meteohub,2013-02-28 07:44:00,
2013-02-28 01:49:00,38.7,32.4,29.93,SW,215,0.0,9.0,78,0.00,,,0.00,meteohub,2013-02-28 07:49:00,
2013-02-28 01:55:00,38.5,32.2,29.93,WNW,290,5.0,8.0,78,0.00,,,0.00,meteohub,2013-02-28 07:55:00,
2013-02-28 02:00:00,38.5,32.2,29.93,WSW,251,1.0,8.0,78,0.00,,,0.00,meteohub,2013-02-28 08:00:00,
2013-02-28 02:05:00,38.3,32.4,29.93,NW,309,3.0,8.0,79,0.00,,,0.00,meteohub,2013-02-28 08:05:00,
2013-02-28 02:10:00,38.1,32.2,29.93,WSW,244,4.0,8.0,79,0.00,,,0.00,meteohub,2013-02-28 08:10:00,
2013-02-28 02:15:00,38.1,32.2,29.93,SSE,150,1.0,8.0,79,0.00,,,0.00,meteohub,2013-02-28 08:15:00,
2013-02-28 02:20:00,38.1,32.2,29.92,WSW,240,1.0,8.0,79,0.00,,,0.00,meteohub,2013-02-28 08:20:00,
2013-02-28 02:25:00,37.9,32.4,29.92,SSW,194,0.0,6.0,80,0.00,,,0.00,meteohub,2013-02-28 08:25:00,
2013-02-28 02:30:00,37.8,32.2,29.92,West,269,2.0,5.0,80,0.00,,,0.00,meteohub,2013-02-28 08:30:00,
2013-02-28 02:35:00,37.6,32.0,29.92,SSW,196,3.0,8.0,80,0.00,,,0.00,meteohub,2013-02-28 08:35:00,
2013-02-28 02:40:00,37.6,32.4,29.92,SW,235,1.0,8.0,81,0.00,,,0.00,meteohub,2013-02-28 08:40:00,
2013-02-28 02:45:00,37.6,32.4,29.92,NW,313,2.0,8.0,81,0.00,,,0.00,meteohub,2013-02-28 08:45:00,
2013-02-28 02:50:00,37.4,32.2,29.92,SW,228,0.0,7.0,81,0.00,,,0.00,meteohub,2013-02-28 08:50:00,
2013-02-28 02:55:00,37.2,32.2,29.91,South,177,2.0,7.0,82,0.00,,,0.00,meteohub,2013-02-28 08:55:00,
2013-02-28 03:01:00,37.2,32.2,29.91,WNW,285,2.0,6.0,82,0.00,,,0.00,meteohub,2013-02-28 09:01:00,
2013-02-28 03:06:00,37.2,32.2,29.91,West,279,2.0,8.0,82,0.00,,,0.00,meteohub,2013-02-28 09:06:00,
2013-02-28 03:11:00,37.0,32.0,29.91,West,279,1.0,8.0,82,0.00,,,0.00,meteohub,2013-02-28 09:11:00,
2013-02-28 03:16:00,37.0,32.0,29.91,WNW,291,1.0,8.0,82,0.00,,,0.00,meteohub,2013-02-28 09:16:00,
2013-02-28 03:21:00,37.0,32.4,29.91,SE,126,0.0,4.0,83,0.00,,,0.00,meteohub,2013-02-28 09:21:00,
2013-02-28 03:26:00,37.0,32.4,29.91,SSW,196,3.0,8.0,83,0.00,,,0.00,meteohub,2013-02-28 09:26:00,
2013-02-28 03:31:00,36.9,32.2,29.91,SW,230,0.0,9.0,83,0.00,,,0.00,meteohub,2013-02-28 09:31:00,
2013-02-28 03:36:00,36.9,32.2,29.91,WSW,256,13.0,13.0,83,0.00,,,0.00,meteohub,2013-02-28 09:36:00,
2013-02-28 03:41:00,36.9,32.2,29.91,WNW,298,1.0,13.0,83,0.00,,,0.00,meteohub,2013-02-28 09:41:00,
2013-02-28 03:46:00,36.9,32.2,29.91,WNW,301,1.0,13.0,83,0.00,,,0.00,meteohub,2013-02-28 09:46:00,
2013-02-28 03:51:00,36.9,32.2,29.91,NNW,333,2.0,13.0,83,0.00,,,0.00,meteohub,2013-02-28 09:51:00,
2013-02-28 03:56:00,36.7,32.0,29.91,WNW,289,1.0,15.0,83,0.00,,,0.00,meteohub,2013-02-28 09:56:00,
2013-02-28 04:01:00,36.7,32.0,29.91,SW,232,1.0,15.0,83,0.00,,,0.00,meteohub,2013-02-28 10:01:00,
2013-02-28 04:06:00,36.7,32.0,29.91,West,277,9.0,15.0,83,0.00,,,0.00,meteohub,2013-02-28 10:06:00,
2013-02-28 04:12:00,36.7,32.0,29.91,ENE,61,1.0,14.0,83,0.00,,,0.00,meteohub,2013-02-28 10:12:00,
2013-02-28 04:17:00,36.5,31.8,29.91,NW,311,3.0,14.0,83,0.00,,,0.00,meteohub,2013-02-28 10:17:00,
2013-02-28 04:22:00,36.5,31.8,29.91,West,281,12.0,13.0,83,0.00,,,0.00,meteohub,2013-02-28 10:22:00,
2013-02-28 04:27:00,36.5,31.8,29.92,West,275,4.0,18.0,83,0.00,,,0.00,meteohub,2013-02-28 10:27:00,
2013-02-28 04:32:00,36.3,31.6,29.92,SSW,203,2.0,18.0,83,0.00,,,0.00,meteohub,2013-02-28 10:32:00,
2013-02-28 04:37:00,36.3,31.6,29.92,SW,227,7.0,18.0,83,0.00,,,0.00,meteohub,2013-02-28 10:37:00,
2013-02-28 04:42:00,36.1,31.5,29.92,WNW,294,1.0,12.0,83,0.00,,,0.00,meteohub,2013-02-28 10:42:00,
2013-02-28 04:47:00,36.1,31.8,29.92,WNW,297,4.0,12.0,84,0.00,,,0.00,meteohub,2013-02-28 10:47:00,
2013-02-28 04:52:00,36.1,31.8,29.92,NNW,327,8.0,14.0,84,0.00,,,0.00,meteohub,2013-02-28 10:52:00,
2013-02-28 04:57:00,36.0,31.6,29.93,WSW,246,1.0,14.0,84,0.00,,,0.00,meteohub,2013-02-28 10:57:00,
2013-02-28 05:02:00,36.0,31.6,29.93,West,268,3.0,12.0,84,0.00,,,0.00,meteohub,2013-02-28 11:02:00,
2013-02-28 05:07:00,35.8,31.5,29.93,WNW,282,4.0,12.0,84,0.00,,,0.00,meteohub,2013-02-28 11:07:00,
2013-02-28 05:12:00,35.6,31.5,29.93,WNW,288,2.0,12.0,85,0.00,,,0.00,meteohub,2013-02-28 11:12:00,
2013-02-28 05:17:00,35.4,31.3,29.93,SSW,213,0.0,12.0,85,0.00,,,0.00,meteohub,2013-02-28 11:17:00,
2013-02-28 05:22:00,35.4,31.3,29.93,NNW,343,0.0,12.0,85,0.00,,,0.00,meteohub,2013-02-28 11:22:00,
2013-02-28 05:27:00,35.4,31.3,29.94,WNW,284,0.0,12.0,85,0.00,,,0.00,meteohub,2013-02-28 11:27:00,
2013-02-28 05:33:00,35.2,31.1,29.93,NNW,339,2.0,10.0,85,0.00,,,0.00,meteohub,2013-02-28 11:33:00,
2013-02-28 05:38:00,35.2,31.1,29.94,WNW,300,3.0,10.0,85,0.00,,,0.00,meteohub,2013-02-28 11:38:00,
2013-02-28 05:43:00,35.2,31.1,29.94,North,349,4.0,11.0,85,0.00,,,0.00,meteohub,2013-02-28 11:43:00,
2013-02-28 05:48:00,35.2,31.1,29.94,NNE,30,2.0,11.0,85,0.00,,,0.00,meteohub,2013-02-28 11:48:00,
2013-02-28 05:53:00,35.1,30.9,29.94,WNW,290,2.0,11.0,85,0.00,,,0.00,meteohub,2013-02-28 11:53:00,
2013-02-28 05:58:00,35.1,30.9,29.94,NW,307,6.0,11.0,85,0.00,,,0.00,meteohub,2013-02-28 11:58:00,
2013-02-28 06:03:00,35.1,31.3,29.94,West,267,9.0,16.0,86,0.00,,,0.00,meteohub,2013-02-28 12:03:00,
2013-02-28 06:08:00,34.9,31.1,29.94,NW,305,3.0,16.0,86,0.00,,,0.00,meteohub,2013-02-28 12:08:00,
2013-02-28 06:13:00,34.9,31.1,29.94,WNW,303,4.0,16.0,86,0.00,,,0.00,meteohub,2013-02-28 12:13:00,
2013-02-28 06:18:00,34.9,31.1,29.95,West,262,2.0,12.0,86,0.00,,,0.00,meteohub,2013-02-28 12:18:00,
2013-02-28 06:24:00,34.9,31.1,29.95,WNW,292,3.0,12.0,86,0.00,,,0.00,meteohub,2013-02-28 12:24:00,
2013-02-28 06:29:00,34.7,30.9,29.95,NW,322,1.0,12.0,86,0.00,,,0.00,meteohub,2013-02-28 12:29:00,
2013-02-28 06:34:00,34.7,31.3,29.95,West,274,13.0,13.0,87,0.00,,,0.00,meteohub,2013-02-28 12:34:00,
2013-02-28 06:39:00,34.7,31.3,29.96,NNW,334,6.0,14.0,87,0.00,,,0.00,meteohub,2013-02-28 12:39:00,
2013-02-28 06:44:00,34.5,31.1,29.96,SW,217,3.0,16.0,87,0.00,,,0.00,meteohub,2013-02-28 12:44:00,
2013-02-28 06:49:00,34.5,31.1,29.96,West,273,7.0,16.0,87,0.00,,,0.00,meteohub,2013-02-28 12:49:00,
2013-02-28 06:54:00,34.5,31.1,29.96,WSW,257,3.0,15.0,87,0.00,,,0.00,meteohub,2013-02-28 12:54:00,
2013-02-28 06:59:00,34.5,31.1,29.96,SE,141,4.0,15.0,87,0.00,,,0.00,meteohub,2013-02-28 12:59:00,
2013-02-28 07:04:00,34.7,30.9,29.96,West,281,8.0,15.0,86,0.00,,,0.00,meteohub,2013-02-28 13:04:00,
2013-02-28 07:09:00,34.9,31.5,29.96,South,183,1.0,14.0,87,0.00,,,0.00,meteohub,2013-02-28 13:09:00,
2013-02-28 07:14:00,35.2,31.5,29.96,NW,317,2.0,16.0,86,0.00,,,0.00,meteohub,2013-02-28 13:14:00,
2013-02-28 07:19:00,35.4,31.1,29.96,South,185,0.0,16.0,84,0.00,,,0.00,meteohub,2013-02-28 13:19:00,
2013-02-28 07:25:00,35.4,30.7,29.96,WNW,284,9.0,13.0,83,0.00,,,0.00,meteohub,2013-02-28 13:25:00,
2013-02-28 07:30:00,36.0,31.3,29.96,WNW,298,9.0,19.0,83,0.00,,,0.00,meteohub,2013-02-28 13:30:00,
2013-02-28 07:35:00,36.3,31.6,29.96,North,5,4.0,19.0,83,0.00,,,0.00,meteohub,2013-02-28 13:35:00,
2013-02-28 07:40:00,36.7,31.1,29.96,West,277,3.0,17.0,80,0.00,,,0.00,meteohub,2013-02-28 13:40:00,
2013-02-28 07:45:00,37.0,31.1,29.96,North,351,8.0,17.0,79,0.00,,,0.00,meteohub,2013-02-28 13:45:00,
2013-02-28 07:50:00,37.6,31.3,29.97,North,355,3.0,17.0,78,0.00,,,0.00,meteohub,2013-02-28 13:50:00,
2013-02-28 07:55:00,37.8,31.3,29.97,West,261,5.0,15.0,77,0.00,,,0.00,meteohub,2013-02-28 13:55:00,
2013-02-28 08:00:00,38.1,31.3,29.97,WNW,287,4.0,15.0,76,0.00,,,0.00,meteohub,2013-02-28 14:00:00,
2013-02-28 08:05:00,38.1,31.3,29.97,NW,311,7.0,19.0,76,0.00,,,0.00,meteohub,2013-02-28 14:05:00,
2013-02-28 08:10:00,38.7,31.1,29.97,NNW,327,9.0,19.0,74,0.00,,,0.00,meteohub,2013-02-28 14:10:00,
2013-02-28 08:16:00,38.7,31.1,29.97,West,278,4.0,19.0,74,0.00,,,0.00,meteohub,2013-02-28 14:16:00,
2013-02-28 08:21:00,39.4,31.1,29.98,NW,314,4.0,16.0,72,0.00,,,0.00,meteohub,2013-02-28 14:21:00,
2013-02-28 08:26:00,39.6,31.6,29.98,WNW,286,6.0,16.0,73,0.00,,,0.00,meteohub,2013-02-28 14:26:00,
2013-02-28 08:31:00,40.3,32.7,29.97,West,260,9.0,12.0,74,0.00,,,0.00,meteohub,2013-02-28 14:31:00,
2013-02-28 08:36:00,40.8,31.8,29.98,NW,306,7.0,12.0,70,0.00,,,0.00,meteohub,2013-02-28 14:36:00,
2013-02-28 08:41:00,41.2,31.8,29.98,North,0,3.0,14.0,69,0.00,,,0.00,meteohub,2013-02-28 14:41:00,
2013-02-28 08:46:00,41.0,31.6,29.98,SW,227,5.0,14.0,69,0.00,,,0.00,meteohub,2013-02-28 14:46:00,
2013-02-28 08:51:00,40.8,32.5,29.98,WNW,301,7.0,14.0,72,0.00,,,0.00,meteohub,2013-02-28 14:51:00,
2013-02-28 08:56:00,40.8,30.7,29.98,West,278,3.0,14.0,67,0.00,,,0.00,meteohub,2013-02-28 14:56:00,
2013-02-28 09:01:00,40.6,30.2,29.98,SSW,213,6.0,14.0,66,0.00,,,0.00,meteohub,2013-02-28 15:01:00,
2013-02-28 09:06:00,40.5,31.5,29.99,WSW,239,1.0,15.0,70,0.00,,,0.00,meteohub,2013-02-28 15:06:00,
2013-02-28 09:11:00,41.5,30.7,29.99,West,278,8.0,15.0,65,0.00,,,0.00,meteohub,2013-02-28 15:11:00,
2013-02-28 09:16:00,41.5,29.8,29.99,WNW,298,7.0,16.0,63,0.00,,,0.00,meteohub,2013-02-28 15:16:00,
2013-02-28 09:21:00,41.4,30.9,29.99,NNE,13,6.0,16.0,66,0.00,,,0.00,meteohub,2013-02-28 15:21:00,
2013-02-28 09:27:00,41.7,30.0,29.99,ENE,69,1.0,18.0,63,0.00,,,0.00,meteohub,2013-02-28 15:27:00,
2013-02-28 09:32:00,42.3,30.2,29.99,NW,311,4.0,18.0,62,0.00,,,0.00,meteohub,2013-02-28 15:32:00,
2013-02-28 09:37:00,42.4,30.0,29.99,North,9,5.0,18.0,61,0.00,,,0.00,meteohub,2013-02-28 15:37:00,
2013-02-28 09:42:00,42.3,30.6,29.99,North,0,3.0,19.0,63,0.00,,,0.00,meteohub,2013-02-28 15:42:00,
2013-02-28 09:47:00,42.6,30.9,29.99,NW,325,4.0,19.0,63,0.00,,,0.00,meteohub,2013-02-28 15:47:00,
2013-02-28 09:52:00,43.2,30.2,29.99,NW,313,7.0,17.0,60,0.00,,,0.00,meteohub,2013-02-28 15:52:00,
2013-02-28 09:57:00,43.2,30.6,29.99,NW,307,11.0,17.0,61,0.00,,,0.00,meteohub,2013-02-28 15:57:00,
2013-02-28 10:02:00,43.2,30.2,29.99,SW,236,3.0,17.0,60,0.00,,,0.00,meteohub,2013-02-28 16:02:00,
2013-02-28 10:07:00,43.2,29.8,30.00,NW,324,8.0,16.0,59,0.00,,,0.00,meteohub,2013-02-28 16:07:00,
2013-02-28 10:12:00,43.2,29.8,30.00,ENE,73,1.0,16.0,59,0.00,,,0.00,meteohub,2013-02-28 16:12:00,
2013-02-28 10:17:00,43.5,30.2,30.00,West,275,6.0,16.0,59,0.00,,,0.00,meteohub,2013-02-28 16:17:00,
2013-02-28 10:22:00,43.3,30.0,30.00,NW,308,7.0,16.0,59,0.00,,,0.00,meteohub,2013-02-28 16:22:00,
2013-02-28 10:27:00,43.3,30.0,30.00,NW,311,8.0,16.0,59,0.00,,,0.00,meteohub,2013-02-28 16:27:00,
2013-02-28 10:32:00,43.2,29.8,30.01,NNW,334,13.0,16.0,59,0.00,,,0.00,meteohub,2013-02-28 16:32:00,
2013-02-28 10:37:00,43.2,28.9,30.00,West,271,6.0,18.0,57,0.00,,,0.00,meteohub,2013-02-28 16:37:00,
2013-02-28 10:42:00,45.0,30.6,30.00,WNW,297,12.0,19.0,57,0.00,,,0.00,meteohub,2013-02-28 16:42:00,
2013-02-28 10:47:00,44.6,30.4,30.01,NNE,22,1.0,19.0,57,0.00,,,0.00,meteohub,2013-02-28 16:47:00,
2013-02-28 10:52:00,44.4,29.3,30.01,SSW,198,7.0,20.0,55,0.00,,,0.00,meteohub,2013-02-28 16:52:00,
2013-02-28 10:57:00,43.5,28.9,30.01,NW,304,4.0,20.0,56,0.00,,,0.00,meteohub,2013-02-28 16:57:00,
2013-02-28 11:02:00,43.9,29.1,30.00,WNW,300,7.0,20.0,56,0.00,,,0.00,meteohub,2013-02-28 17:02:00,
2013-02-28 11:07:00,44.1,29.3,30.01,West,261,5.0,18.0,56,0.00,,,0.00,meteohub,2013-02-28 17:07:00,
2013-02-28 11:12:00,43.9,29.1,30.00,WNW,294,6.0,18.0,56,0.00,,,0.00,meteohub,2013-02-28 17:12:00,
2013-02-28 11:17:00,44.2,30.0,30.01,WNW,299,12.0,16.0,57,0.00,,,0.00,meteohub,2013-02-28 17:17:00,
2013-02-28 11:22:00,44.8,29.1,30.01,SSE,167,2.0,14.0,54,0.00,,,0.00,meteohub,2013-02-28 17:22:00,
2013-02-28 11:27:00,44.2,30.0,30.01,WNW,298,4.0,14.0,57,0.00,,,0.00,meteohub,2013-02-28 17:27:00,
2013-02-28 11:32:00,44.2,29.5,30.01,South,184,2.0,18.0,56,0.00,,,0.00,meteohub,2013-02-28 17:32:00,
2013-02-28 11:37:00,43.7,29.1,30.01,WNW,294,9.0,18.0,56,0.00,,,0.00,meteohub,2013-02-28 17:37:00,
2013-02-28 11:42:00,43.2,29.3,30.01,NW,304,6.0,18.0,58,0.00,,,0.00,meteohub,2013-02-28 17:42:00,
2013-02-28 11:47:00,43.9,30.0,30.00,ESE,111,3.0,18.0,58,0.00,,,0.00,meteohub,2013-02-28 17:47:00,
2013-02-28 11:52:00,44.2,29.5,30.01,NNE,32,2.0,14.0,56,0.00,,,0.00,meteohub,2013-02-28 17:52:00,
2013-02-28 11:58:00,44.4,29.3,30.01,NW,313,7.0,12.0,55,0.00,,,0.00,meteohub,2013-02-28 17:58:00,
2013-02-28 12:03:00,43.7,29.1,30.00,WNW,292,6.0,15.0,56,0.00,,,0.00,meteohub,2013-02-28 18:03:00,
2013-02-28 12:08:00,44.1,30.2,30.00,SW,224,4.0,15.0,58,0.00,,,0.00,meteohub,2013-02-28 18:08:00,
2013-02-28 12:13:00,45.7,30.9,30.01,WNW,295,2.0,15.0,56,0.00,,,0.00,meteohub,2013-02-28 18:13:00,
2013-02-28 12:18:00,45.0,29.3,30.00,NW,309,5.0,15.0,54,0.00,,,0.00,meteohub,2013-02-28 18:18:00,
2013-02-28 12:23:00,44.1,29.8,30.00,NW,315,3.0,15.0,57,0.00,,,0.00,meteohub,2013-02-28 18:23:00,
2013-02-28 12:28:00,43.9,29.7,30.00,WNW,283,11.0,14.0,57,0.00,,,0.00,meteohub,2013-02-28 18:28:00,
2013-02-28 12:33:00,43.5,29.3,30.00,ESE,106,2.0,14.0,57,0.00,,,0.00,meteohub,2013-02-28 18:33:00,
2013-02-28 12:38:00,43.7,29.1,30.00,NW,317,7.0,17.0,56,0.00,,,0.00,meteohub,2013-02-28 18:38:00,
2013-02-28 12:43:00,43.3,29.5,30.00,WNW,299,4.0,17.0,58,0.00,,,0.00,meteohub,2013-02-28 18:43:00,
2013-02-28 12:48:00,44.6,30.4,30.00,WNW,286,11.0,17.0,57,0.00,,,0.00,meteohub,2013-02-28 18:48:00,
2013-02-28 12:53:00,45.1,29.5,30.00,NW,309,2.0,15.0,54,0.00,,,0.00,meteohub,2013-02-28 18:53:00,
2013-02-28 12:58:00,44.6,28.9,30.00,SSE,148,3.0,14.0,54,0.00,,,0.00,meteohub,2013-02-28 18:58:00,
2013-02-28 13:03:00,44.8,29.7,30.00,WNW,300,8.0,19.0,55,0.00,,,0.00,meteohub,2013-02-28 19:03:00,
2013-02-28 13:08:00,44.4,28.8,30.01,NNW,330,7.0,19.0,54,0.00,,,0.00,meteohub,2013-02-28 19:08:00,
2013-02-28 13:13:00,44.4,29.3,30.01,ESE,117,2.0,16.0,55,0.00,,,0.00,meteohub,2013-02-28 19:13:00,
2013-02-28 13:18:00,43.9,28.8,30.01,WNW,302,10.0,15.0,55,0.00,,,0.00,meteohub,2013-02-28 19:18:00,
2013-02-28 13:23:00,43.5,29.7,30.01,SSW,204,3.0,15.0,58,0.00,,,0.00,meteohub,2013-02-28 19:23:00,
2013-02-28 13:28:00,43.5,29.3,30.01,ESE,111,2.0,15.0,57,0.00,,,0.00,meteohub,2013-02-28 19:28:00,
2013-02-28 13:33:00,43.5,29.3,30.01,ENE,67,1.0,14.0,57,0.00,,,0.00,meteohub,2013-02-28 19:33:00,
2013-02-28 13:39:00,43.5,28.9,30.01,NW,316,4.0,14.0,56,0.00,,,0.00,meteohub,2013-02-28 19:39:00,
2013-02-28 13:44:00,43.3,29.1,30.01,WNW,284,3.0,14.0,57,0.00,,,0.00,meteohub,2013-02-28 19:44:00,
2013-02-28 13:49:00,43.0,28.8,30.01,NW,317,2.0,14.0,57,0.00,,,0.00,meteohub,2013-02-28 19:49:00,
2013-02-28 13:54:00,42.4,29.1,30.01,WNW,291,4.0,17.0,59,0.00,,,0.00,meteohub,2013-02-28 19:54:00,
2013-02-28 13:59:00,42.3,28.9,30.02,WNW,284,9.0,17.0,59,0.00,,,0.00,meteohub,2013-02-28 19:59:00,
2013-02-28 14:04:00,42.3,29.3,30.02,WNW,291,3.0,17.0,60,0.00,,,0.00,meteohub,2013-02-28 20:04:00,
2013-02-28 14:09:00,42.3,29.3,30.02,NNW,331,5.0,14.0,60,0.00,,,0.00,meteohub,2013-02-28 20:09:00,
2013-02-28 14:14:00,42.3,28.9,30.02,West,261,4.0,12.0,59,0.00,,,0.00,meteohub,2013-02-28 20:14:00,
2013-02-28 14:19:00,42.1,28.8,30.02,NW,309,3.0,15.0,59,0.00,,,0.00,meteohub,2013-02-28 20:19:00,
2013-02-28 14:24:00,42.3,29.8,30.02,NNW,328,1.0,18.0,61,0.00,,,0.00,meteohub,2013-02-28 20:24:00,
2013-02-28 14:29:00,42.4,29.5,30.02,NNW,338,3.0,18.0,60,0.00,,,0.00,meteohub,2013-02-28 20:29:00,
2013-02-28 14:34:00,42.1,29.1,30.02,NW,316,13.0,18.0,60,0.00,,,0.00,meteohub,2013-02-28 20:34:00,
2013-02-28 14:39:00,42.1,29.1,30.02,East,80,2.0,15.0,60,0.00,,,0.00,meteohub,2013-02-28 20:39:00,
2013-02-28 14:44:00,41.5,28.8,30.02,NW,309,3.0,15.0,60,0.00,,,0.00,meteohub,2013-02-28 20:44:00,
2013-02-28 14:49:00,41.4,28.9,30.02,WNW,299,8.0,14.0,61,0.00,,,0.00,meteohub,2013-02-28 20:49:00,
2013-02-28 14:54:00,41.2,29.1,30.02,WNW,295,10.0,17.0,62,0.00,,,0.00,meteohub,2013-02-28 20:54:00,
2013-02-28 14:59:00,41.0,29.3,30.02,NNE,17,3.0,17.0,63,0.00,,,0.00,meteohub,2013-02-28 20:59:00,
2013-02-28 15:04:00,41.2,28.8,30.02,West,281,9.0,17.0,61,0.00,,,0.00,meteohub,2013-02-28 21:04:00,
2013-02-28 15:09:00,41.2,29.5,30.02,WNW,290,4.0,12.0,63,0.00,,,0.00,meteohub,2013-02-28 21:09:00,
2013-02-28 15:15:00,41.2,29.5,30.03,NNE,18,0.0,14.0,63,0.00,,,0.00,meteohub,2013-02-28 21:15:00,
2013-02-28 15:20:00,41.2,29.1,30.02,NW,313,3.0,14.0,62,0.00,,,0.00,meteohub,2013-02-28 21:20:00,
2013-02-28 15:25:00,40.8,28.8,30.02,NW,316,8.0,14.0,62,0.00,,,0.00,meteohub,2013-02-28 21:25:00,
2013-02-28 15:30:00,40.6,28.6,30.03,WNW,292,2.0,14.0,62,0.00,,,0.00,meteohub,2013-02-28 21:30:00,
2013-02-28 15:35:00,40.6,29.5,30.02,WNW,294,3.0,14.0,64,0.00,,,0.00,meteohub,2013-02-28 21:35:00,
2013-02-28 15:40:00,40.6,29.5,30.03,NNE,20,3.0,11.0,64,0.00,,,0.00,meteohub,2013-02-28 21:40:00,
2013-02-28 15:45:00,40.6,29.1,30.03,NW,315,10.0,13.0,63,0.00,,,0.00,meteohub,2013-02-28 21:45:00,
2013-02-28 15:50:00,40.3,28.2,30.02,WNW,286,8.0,19.0,62,0.00,,,0.00,meteohub,2013-02-28 21:50:00,
2013-02-28 15:55:00,40.1,28.6,30.03,ENE,63,1.0,19.0,63,0.00,,,0.00,meteohub,2013-02-28 21:55:00,
2013-02-28 16:00:00,40.3,28.8,30.03,WNW,286,4.0,17.0,63,0.00,,,0.00,meteohub,2013-02-28 22:00:00,
2013-02-28 16:05:00,39.9,27.5,30.03,WNW,303,15.0,17.0,61,0.00,,,0.00,meteohub,2013-02-28 22:05:00,
2013-02-28 16:10:00,39.7,28.6,30.03,NW,315,8.0,17.0,64,0.00,,,0.00,meteohub,2013-02-28 22:10:00,
2013-02-28 16:15:00,39.6,27.7,30.03,NW,315,1.0,17.0,62,0.00,,,0.00,meteohub,2013-02-28 22:15:00,
2013-02-28 16:20:00,39.6,27.7,30.03,West,260,5.0,16.0,62,0.00,,,0.00,meteohub,2013-02-28 22:20:00,
2013-02-28 16:25:00,39.6,28.0,30.04,West,271,4.0,16.0,63,0.00,,,0.00,meteohub,2013-02-28 22:25:00,
2013-02-28 16:30:00,39.6,27.7,30.03,NW,319,2.0,13.0,62,0.00,,,0.00,meteohub,2013-02-28 22:30:00,
2013-02-28 16:35:00,39.4,27.9,30.03,WNW,298,7.0,12.0,63,0.00,,,0.00,meteohub,2013-02-28 22:35:00,
2013-02-28 16:40:00,39.2,27.7,30.04,NW,314,3.0,15.0,63,0.00,,,0.00,meteohub,2013-02-28 22:40:00,
2013-02-28 16:46:00,39.2,27.7,30.03,West,269,10.0,15.0,63,0.00,,,0.00,meteohub,2013-02-28 22:46:00,
2013-02-28 16:51:00,39.0,27.5,30.04,NNW,342,3.0,15.0,63,0.00,,,0.00,meteohub,2013-02-28 22:51:00,
2013-02-28 16:56:00,39.0,27.9,30.03,WNW,294,10.0,14.0,64,0.00,,,0.00,meteohub,2013-02-28 22:56:00,
2013-02-28 17:01:00,38.8,27.7,30.03,WNW,291,3.0,14.0,64,0.00,,,0.00,meteohub,2013-02-28 23:01:00,
2013-02-28 17:06:00,38.8,27.7,30.04,WNW,287,0.0,12.0,64,0.00,,,0.00,meteohub,2013-02-28 23:06:00,
2013-02-28 17:11:00,38.8,28.8,30.04,North,5,0.0,12.0,67,0.00,,,0.00,meteohub,2013-02-28 23:11:00,
2013-02-28 17:16:00,38.8,27.7,30.04,NW,325,0.0,12.0,64,0.00,,,0.00,meteohub,2013-02-28 23:16:00,
2013-02-28 17:21:00,38.8,27.7,30.04,NW,319,3.0,7.0,64,0.00,,,0.00,meteohub,2013-02-28 23:21:00,
2013-02-28 17:26:00,38.7,27.5,30.04,NNW,327,3.0,7.0,64,0.00,,,0.00,meteohub,2013-02-28 23:26:00,
2013-02-28 17:31:00,38.5,28.0,30.04,SSW,205,1.0,12.0,66,0.00,,,0.00,meteohub,2013-02-28 23:31:00,
2013-02-28 17:36:00,38.1,27.3,30.04,WNW,302,7.0,12.0,65,0.00,,,0.00,meteohub,2013-02-28 23:36:00,
2013-02-28 17:41:00,37.8,27.1,30.04,NNW,336,1.0,10.0,65,0.00,,,0.00,meteohub,2013-02-28 23:41:00,
2013-02-28 17:46:00,37.6,27.3,30.04,NNW,346,1.0,8.0,66,0.00,,,0.00,meteohub,2013-02-28 23:46:00,
2013-02-28 17:51:00,37.2,27.3,30.04,WNW,284,2.0,8.0,67,0.00,,,0.00,meteohub,2013-02-28 23:51:00,
2013-02-28 17:56:00,37.0,27.1,30.04,NW,306,3.0,9.0,67,0.00,,,0.00,meteohub,2013-02-28 23:56:00,
2013-02-28 18:02:00,36.9,27.0,30.04,NNW,339,1.0,9.0,67,0.00,,,0.00,meteohub,2013-03-01 00:02:00,
2013-02-28 18:07:00,36.7,27.1,30.04,NNW,340,0.0,9.0,68,0.00,,,0.00,meteohub,2013-03-01 00:07:00,
2013-02-28 18:12:00,36.3,26.8,30.04,North,355,0.0,6.0,68,0.00,,,0.00,meteohub,2013-03-01 00:12:00,
2013-02-28 18:17:00,36.1,27.0,30.04,NNE,26,4.0,6.0,69,0.00,,,0.00,meteohub,2013-03-01 00:17:00,
2013-02-28 18:22:00,36.1,27.0,30.04,North,0,1.0,6.0,69,0.00,,,0.00,meteohub,2013-03-01 00:22:00,
2013-02-28 18:27:00,36.0,26.8,30.04,North,349,0.0,4.0,69,0.00,,,0.00,meteohub,2013-03-01 00:27:00,
2013-02-28 18:32:00,36.0,26.8,30.04,NNW,348,1.0,4.0,69,0.00,,,0.00,meteohub,2013-03-01 00:32:00,
2013-02-28 18:37:00,35.8,27.0,30.04,NNW,348,0.0,3.0,70,0.00,,,0.00,meteohub,2013-03-01 00:37:00,
2013-02-28 18:42:00,35.8,27.0,30.05,NNW,331,0.0,4.0,70,0.00,,,0.00,meteohub,2013-03-01 00:42:00,
2013-02-28 18:47:00,35.4,26.6,30.05,NW,306,2.0,4.0,70,0.00,,,0.00,meteohub,2013-03-01 00:47:00,
2013-02-28 18:52:00,35.4,27.0,30.05,NE,46,0.0,4.0,71,0.00,,,0.00,meteohub,2013-03-01 00:52:00,
2013-02-28 18:57:00,35.4,27.3,30.05,NE,46,0.0,3.0,72,0.00,,,0.00,meteohub,2013-03-01 00:57:00,
2013-02-28 19:02:00,35.4,27.0,30.05,NNW,347,0.0,3.0,71,0.00,,,0.00,meteohub,2013-03-01 01:02:00,
2013-02-28 19:07:00,35.4,27.3,30.05,North,11,0.0,3.0,72,0.00,,,0.00,meteohub,2013-03-01 01:07:00,
2013-02-28 19:12:00,35.4,27.3,30.05,North,355,2.0,3.0,72,0.00,,,0.00,meteohub,2013-03-01 01:12:00,
2013-02-28 19:17:00,35.4,27.3,30.05,NNW,331,2.0,3.0,72,0.00,,,0.00,meteohub,2013-03-01 01:17:00,
2013-02-28 19:22:00,35.8,28.0,30.05,NNW,340,0.0,4.0,73,0.00,,,0.00,meteohub,2013-03-01 01:22:00,
2013-02-28 19:27:00,35.8,27.7,30.05,NNE,18,1.0,4.0,72,0.00,,,0.00,meteohub,2013-03-01 01:27:00,
2013-02-28 19:32:00,35.8,27.7,30.05,NW,312,0.0,6.0,72,0.00,,,0.00,meteohub,2013-03-01 01:32:00,
2013-02-28 19:37:00,35.8,27.7,30.05,NNE,15,2.0,6.0,72,0.00,,,0.00,meteohub,2013-03-01 01:37:00,
2013-02-28 19:42:00,35.8,27.7,30.05,WNW,292,1.0,6.0,72,0.00,,,0.00,meteohub,2013-03-01 01:42:00,
2013-02-28 19:47:00,35.8,27.7,30.05,NW,320,1.0,4.0,72,0.00,,,0.00,meteohub,2013-03-01 01:47:00,
2013-02-28 19:52:00,35.8,28.0,30.05,NW,320,0.0,4.0,73,0.00,,,0.00,meteohub,2013-03-01 01:52:00,
2013-02-28 19:57:00,35.8,28.4,30.05,NW,320,0.0,3.0,74,0.00,,,0.00,meteohub,2013-03-01 01:57:00,
2013-02-28 20:02:00,35.8,28.4,30.06,NW,312,0.0,5.0,74,0.00,,,0.00,meteohub,2013-03-01 02:02:00,
2013-02-28 20:07:00,36.0,28.4,30.06,NW,312,0.0,5.0,74,0.00,,,0.00,meteohub,2013-03-01 02:07:00,
2013-02-28 20:12:00,36.0,28.4,30.05,North,11,1.0,5.0,74,0.00,,,0.00,meteohub,2013-03-01 02:12:00,
2013-02-28 20:17:00,36.0,28.4,30.05,West,273,0.0,5.0,74,0.00,,,0.00,meteohub,2013-03-01 02:17:00,
2013-02-28 20:22:00,36.1,28.6,30.05,West,273,0.0,5.0,74,0.00,,,0.00,meteohub,2013-03-01 02:22:00,
2013-02-28 20:27:00,36.1,28.6,30.06,North,9,1.0,5.0,74,0.00,,,0.00,meteohub,2013-03-01 02:27:00,
2013-02-28 20:32:00,36.1,28.9,30.06,NNW,331,2.0,3.0,75,0.00,,,0.00,meteohub,2013-03-01 02:32:00,
2013-02-28 20:38:00,36.1,28.6,30.06,North,9,4.0,5.0,74,0.00,,,0.00,meteohub,2013-03-01 02:38:00,
2013-02-28 20:43:00,36.3,28.6,30.06,NW,309,2.0,5.0,73,0.00,,,0.00,meteohub,2013-03-01 02:43:00,
2013-02-28 20:48:00,36.3,28.8,30.06,NNE,32,3.0,5.0,74,0.00,,,0.00,meteohub,2013-03-01 02:48:00,
2013-02-28 20:53:00,36.5,28.8,30.06,East,101,1.0,5.0,73,0.00,,,0.00,meteohub,2013-03-01 02:53:00,
2013-02-28 20:58:00,36.5,28.8,30.06,NNE,17,1.0,5.0,73,0.00,,,0.00,meteohub,2013-03-01 02:58:00,
2013-02-28 21:03:00,36.7,28.6,30.06,NW,306,1.0,5.0,72,0.00,,,0.00,meteohub,2013-03-01 03:03:00,
2013-02-28 21:08:00,36.7,28.6,30.06,NNW,345,8.0,8.0,72,0.00,,,0.00,meteohub,2013-03-01 03:08:00,
2013-02-28 21:13:00,36.7,27.9,30.06,NNW,342,2.0,8.0,70,0.00,,,0.00,meteohub,2013-03-01 03:13:00,
2013-02-28 21:18:00,36.7,28.2,30.06,NNW,346,5.0,12.0,71,0.00,,,0.00,meteohub,2013-03-01 03:18:00,
2013-02-28 21:23:00,36.7,28.2,30.07,North,5,2.0,12.0,71,0.00,,,0.00,meteohub,2013-03-01 03:23:00,
2013-02-28 21:28:00,36.7,28.2,30.07,NNE,12,1.0,12.0,71,0.00,,,0.00,meteohub,2013-03-01 03:28:00,
2013-02-28 21:33:00,36.7,28.2,30.06,NNE,28,2.0,7.0,71,0.00,,,0.00,meteohub,2013-03-01 03:33:00,
2013-02-28 21:38:00,36.7,28.2,30.06,NNW,347,3.0,9.0,71,0.00,,,0.00,meteohub,2013-03-01 03:38:00,
2013-02-28 21:43:00,36.7,27.9,30.06,North,10,3.0,10.0,70,0.00,,,0.00,meteohub,2013-03-01 03:43:00,
2013-02-28 21:49:00,36.7,28.2,30.06,NW,313,0.0,10.0,71,0.00,,,0.00,meteohub,2013-03-01 03:49:00,
2013-02-28 21:54:00,36.7,27.9,30.07,NE,38,2.0,10.0,70,0.00,,,0.00,meteohub,2013-03-01 03:54:00,
2013-02-28 21:59:00,36.7,28.2,30.07,NW,326,5.0,10.0,71,0.00,,,0.00,meteohub,2013-03-01 03:59:00,
2013-02-28 22:04:00,36.7,28.6,30.07,WNW,294,2.0,8.0,72,0.00,,,0.00,meteohub,2013-03-01 04:04:00,
2013-02-28 22:09:00,36.7,27.9,30.06,North,355,2.0,7.0,70,0.00,,,0.00,meteohub,2013-03-01 04:09:00,
2013-02-28 22:14:00,36.5,28.0,30.06,NNE,18,3.0,6.0,71,0.00,,,0.00,meteohub,2013-03-01 04:14:00,
2013-02-28 22:19:00,36.5,28.4,30.06,North,0,3.0,6.0,72,0.00,,,0.00,meteohub,2013-03-01 04:19:00,
2013-02-28 22:24:00,36.5,28.0,30.06,WSW,237,1.0,6.0,71,0.00,,,0.00,meteohub,2013-03-01 04:24:00,
2013-02-28 22:29:00,36.5,27.7,30.05,North,355,1.0,6.0,70,0.00,,,0.00,meteohub,2013-03-01 04:29:00,
2013-02-28 22:34:00,36.3,27.5,30.05,WNW,302,1.0,5.0,70,0.00,,,0.00,meteohub,2013-03-01 04:34:00,
2013-02-28 22:40:00,36.3,27.5,30.05,NW,304,2.0,5.0,70,0.00,,,0.00,meteohub,2013-03-01 04:40:00,
2013-02-28 22:45:00,36.3,27.9,30.05,NNE,19,0.0,5.0,71,0.00,,,0.00,meteohub,2013-03-01 04:45:00,
2013-02-28 22:50:00,36.3,27.9,30.05,North,11,4.0,6.0,71,0.00,,,0.00,meteohub,2013-03-01 04:50:00,
2013-02-28 22:55:00,36.3,27.5,30.05,North,355,0.0,8.0,70,0.00,,,0.00,meteohub,2013-03-01 04:55:00,
2013-02-28 23:00:00,36.3,27.5,30.05,NNE,15,3.0,8.0,70,0.00,,,0.00,meteohub,2013-03-01 05:00:00,
2013-02-28 23:01:00,36.3,27.9,30.05,NE,51,2.0,8.0,71,0.00,,,0.00,meteohub,2013-03-01 05:01:00,
2013-02-28 23:06:00,36.3,27.9,30.05,ENE,69,2.0,8.0,71,0.00,,,0.00,meteohub,2013-03-01 05:06:00,
2013-02-28 23:11:00,36.3,27.5,30.05,WNW,301,4.0,5.0,70,0.00,,,0.00,meteohub,2013-03-01 05:11:00,
2013-02-28 23:16:00,36.3,28.2,30.05,NE,52,2.0,7.0,72,0.00,,,0.00,meteohub,2013-03-01 05:16:00,
2013-02-28 23:21:00,36.3,27.5,30.05,North,0,2.0,7.0,70,0.00,,,0.00,meteohub,2013-03-01 05:21:00,
2013-02-28 23:26:00,36.3,27.1,30.05,WNW,290,1.0,7.0,69,0.00,,,0.00,meteohub,2013-03-01 05:26:00,
2013-02-28 23:31:00,36.3,27.1,30.05,North,5,4.0,6.0,69,0.00,,,0.00,meteohub,2013-03-01 05:31:00,
2013-02-28 23:36:00,36.3,28.2,30.05,ESE,114,3.0,13.0,72,0.00,,,0.00,meteohub,2013-03-01 05:36:00,
2013-02-28 23:41:00,36.3,27.1,30.05,NW,321,2.0,13.0,69,0.00,,,0.00,meteohub,2013-03-01 05:41:00,
2013-02-28 23:46:00,36.3,27.5,30.04,North,355,2.0,13.0,70,0.00,,,0.00,meteohub,2013-03-01 05:46:00,
2013-02-28 23:52:00,36.1,27.7,30.04,NNE,19,1.0,6.0,71,0.00,,,0.00,meteohub,2013-03-01 05:52:00,
2013-02-28 23:57:00,36.1,28.0,30.04,WNW,285,0.0,5.0,72,0.00,,,0.00,meteohub,2013-03-01 05:57:00,